Location: Unspecified
(0.0000°N, 0.0000°E)
Time: 18:48:57
(UTC+00:00)

SRMSAT - Pass Details

Date: 02 June 2020
Orbit: 848 x 866 km, 20.0° (Epoch: 06 July)

Event Time Altitude Azimuth Distance (km) Brightness Sun altitude
Exits shadow 04:29:10 14° 187° (S) 2,197 ? -20.5°
Drops below altitude 10° 04:31:54 10° 159° (SSE) 2,496 ? -19.9°
Sets 04:35:46 0° 135° (SE) 3,434 ? -19.0°
